Time,TemperatureF,DewpointF,PressureIn,WindDirection,WindDirectionDegrees,WindSpeedMPH,WindSpeedGustMPH,Humidity,HourlyPrecipIn,Conditions,Clouds,dailyrainin,SoftwareType,DateUTC
2013-12-06 00:04:00,6.9,-6.2,29.43,NNW,341,5.0,16.0,54,0.00,,,-99.99,Weather View 32 v60,2013-12-06 06:04:00,
2013-12-06 00:10:00,6.9,-6.2,29.43,North,357,6.0,16.0,54,0.00,,,-99.99,Weather View 32 v60,2013-12-06 06:10:00,
2013-12-06 00:15:00,6.9,-6.2,29.43,NNW,338,8.0,16.0,54,0.00,,,-99.99,Weather View 32 v60,2013-12-06 06:15:00,
2013-12-06 00:25:00,6.6,-6.9,29.42,NNW,344,7.0,16.0,53,0.00,,,-99.99,Weather View 32 v60,2013-12-06 06:25:00,
2013-12-06 00:30:00,6.5,-7.0,29.42,North,355,5.0,16.0,53,0.00,,,-99.99,Weather View 32 v60,2013-12-06 06:30:00,
2013-12-06 00:39:00,6.3,-7.6,29.41,North,358,6.0,16.0,52,0.00,,,-99.99,Weather View 32 v60,2013-12-06 06:39:00,
2013-12-06 00:45:00,6.3,-7.2,29.41,North,357,5.0,16.0,53,0.00,,,-99.99,Weather View 32 v60,2013-12-06 06:45:00,
2013-12-06 00:54:00,6.1,-7.4,29.41,NNW,337,6.0,16.0,53,0.00,,,-99.99,Weather View 32 v60,2013-12-06 06:54:00,
2013-12-06 01:00:00,6.0,-7.1,29.41,NNW,346,10.0,16.0,54,0.00,,,-99.99,Weather View 32 v60,2013-12-06 07:00:00,
2013-12-06 01:10:00,6.0,-7.5,29.41,North,0,10.0,16.0,53,0.00,,,-99.99,Weather View 32 v60,2013-12-06 07:10:00,
2013-12-06 01:20:00,5.7,-7.7,29.41,North,0,3.0,15.0,53,0.00,,,-99.99,Weather View 32 v60,2013-12-06 07:20:00,
2013-12-06 01:29:00,5.6,-58.8,29.42,NW,323,4.0,15.0,3,0.00,,,-99.99,Weather View 32 v60,2013-12-06 07:29:00,
2013-12-06 01:35:00,5.8,-6.9,29.43,NW,313,5.0,15.0,55,0.00,,,-99.99,Weather View 32 v60,2013-12-06 07:35:00,
2013-12-06 01:45:00,6.1,-7.0,29.43,NW,326,3.0,14.0,54,0.00,,,-99.99,Weather View 32 v60,2013-12-06 07:45:00,
2013-12-06 02:00:00,6.1,-6.6,29.43,North,358,4.0,14.0,55,0.00,,,-99.99,Weather View 32 v60,2013-12-06 08:00:00,
2013-12-06 02:10:00,6.1,-7.4,29.43,NNW,337,3.0,16.0,53,0.00,,,-99.99,Weather View 32 v60,2013-12-06 08:10:00,
2013-12-06 02:15:00,6.2,-7.3,29.43,North,359,6.0,16.0,53,0.00,,,-99.99,Weather View 32 v60,2013-12-06 08:15:00,
2013-12-06 02:25:00,6.2,-7.7,29.43,North,359,8.0,16.0,52,0.00,,,-99.99,Weather View 32 v60,2013-12-06 08:25:00,
2013-12-06 02:35:00,6.1,-7.7,29.42,North,358,7.0,16.0,52,0.00,,,-99.99,Weather View 32 v60,2013-12-06 08:35:00,
2013-12-06 02:45:00,6.1,-7.7,29.43,NNW,339,5.0,16.0,52,0.00,,,-99.99,Weather View 32 v60,2013-12-06 08:45:00,
2013-12-06 02:50:00,6.1,-7.7,29.43,North,359,4.0,16.0,52,0.00,,,-99.99,Weather View 32 v60,2013-12-06 08:50:00,
2013-12-06 02:58:00,6.0,-7.8,29.43,North,352,4.0,16.0,52,0.00,,,-99.99,Weather View 32 v60,2013-12-06 08:58:00,
2013-12-06 03:05:00,6.2,-53.9,29.43,North,1,6.0,16.0,4,0.00,,,-99.99,Weather View 32 v60,2013-12-06 09:05:00,
2013-12-06 03:10:00,6.2,-64.6,29.44,NNW,329,6.0,16.0,2,0.00,,,-99.99,Weather View 32 v60,2013-12-06 09:10:00,
2013-12-06 03:20:00,6.0,-7.8,29.44,North,0,5.0,14.0,52,0.00,,,-99.99,Weather View 32 v60,2013-12-06 09:20:00,
2013-12-06 03:30:00,6.0,-58.5,29.44,North,355,5.0,14.0,3,0.00,,,-99.99,Weather View 32 v60,2013-12-06 09:30:00,
2013-12-06 03:35:00,5.9,-7.9,29.44,North,351,3.0,13.0,52,0.00,,,-99.99,Weather View 32 v60,2013-12-06 09:35:00,
2013-12-06 03:45:00,5.9,-7.9,29.45,NW,318,5.0,12.0,52,0.00,,,-99.99,Weather View 32 v60,2013-12-06 09:45:00,
2013-12-06 03:50:00,5.8,-8.0,29.45,NNW,343,4.0,12.0,52,0.00,,,-99.99,Weather View 32 v60,2013-12-06 09:50:00,
2013-12-06 03:55:00,5.7,-8.1,29.45,NNW,334,5.0,12.0,52,0.00,,,-99.99,Weather View 32 v60,2013-12-06 09:55:00,
2013-12-06 04:00:00,5.3,-8.9,29.46,North,353,3.0,13.0,51,0.00,,,-99.99,Weather View 32 v60,2013-12-06 10:00:00,
2013-12-06 04:10:00,4.9,-8.9,29.46,North,0,7.0,13.0,52,0.00,,,-99.99,Weather View 32 v60,2013-12-06 10:10:00,
2013-12-06 04:15:00,4.8,-43.6,29.45,NNW,327,8.0,13.0,8,0.00,,,-99.99,Weather View 32 v60,2013-12-06 10:15:00,
2013-12-06 04:25:00,4.5,-43.8,29.45,NW,304,6.0,15.0,8,0.00,,,-99.99,Weather View 32 v60,2013-12-06 10:25:00,
2013-12-06 04:30:00,4.1,-51.9,29.46,NNW,343,6.0,15.0,5,0.00,,,-99.99,Weather View 32 v60,2013-12-06 10:30:00,
2013-12-06 04:40:00,3.9,-9.8,29.46,North,4,1.0,15.0,52,0.00,,,-99.99,Weather View 32 v60,2013-12-06 10:40:00,
2013-12-06 04:45:00,4.1,-9.2,29.46,North,352,4.0,15.0,53,0.00,,,-99.99,Weather View 32 v60,2013-12-06 10:45:00,
2013-12-06 04:55:00,4.2,-8.8,29.46,NW,316,3.0,15.0,54,0.00,,,-99.99,Weather View 32 v60,2013-12-06 10:55:00,
2013-12-06 05:00:00,4.3,-8.7,29.46,NNW,333,3.0,15.0,54,0.00,,,-99.99,Weather View 32 v60,2013-12-06 11:00:00,
2013-12-06 05:10:00,4.2,-9.1,29.46,North,354,10.0,15.0,53,0.00,,,-99.99,Weather View 32 v60,2013-12-06 11:10:00,
2013-12-06 05:20:00,3.5,-9.8,29.46,WNW,303,9.0,17.0,53,0.00,,,-99.99,Weather View 32 v60,2013-12-06 11:20:00,
2013-12-06 05:25:00,3.5,-40.8,29.47,NNW,332,3.0,17.0,10,0.00,,,-99.99,Weather View 32 v60,2013-12-06 11:25:00,
2013-12-06 05:35:00,3.1,-10.2,29.46,NW,311,4.0,17.0,53,0.00,,,-99.99,Weather View 32 v60,2013-12-06 11:35:00,
2013-12-06 05:40:00,3.0,-9.9,29.47,NNW,343,5.0,17.0,54,0.00,,,-99.99,Weather View 32 v60,2013-12-06 11:40:00,
2013-12-06 05:45:00,2.9,-9.6,29.47,WNW,300,5.0,17.0,55,0.00,,,-99.99,Weather View 32 v60,2013-12-06 11:45:00,
2013-12-06 05:55:00,2.8,-9.7,29.47,NNW,348,6.0,17.0,55,0.00,,,-99.99,Weather View 32 v60,2013-12-06 11:55:00,
2013-12-06 06:00:00,2.8,-60.8,29.47,NNW,348,3.0,17.0,3,0.00,,,-99.99,Weather View 32 v60,2013-12-06 12:00:00,
2013-12-06 06:05:00,2.7,-9.8,29.47,NNW,334,4.0,17.0,55,0.00,,,-99.99,Weather View 32 v60,2013-12-06 12:05:00,
2013-12-06 06:14:00,2.7,-9.4,29.47,NNW,337,2.0,14.0,56,0.00,,,-99.99,Weather View 32 v60,2013-12-06 12:14:00,
2013-12-06 06:20:00,2.7,-9.4,29.47,NW,325,5.0,14.0,56,0.00,,,-99.99,Weather View 32 v60,2013-12-06 12:20:00,
2013-12-06 06:30:00,2.8,-9.0,29.49,NW,324,3.0,12.0,57,0.00,,,-99.99,Weather View 32 v60,2013-12-06 12:30:00,
2013-12-06 06:35:00,3.0,-8.8,29.49,NNW,342,6.0,12.0,57,0.00,,,-99.99,Weather View 32 v60,2013-12-06 12:35:00,
2013-12-06 06:45:00,2.7,-9.4,29.48,North,357,7.0,12.0,56,0.00,,,-99.99,Weather View 32 v60,2013-12-06 12:45:00,
2013-12-06 06:50:00,2.5,-10.0,29.48,NNW,342,13.0,16.0,55,0.00,,,-99.99,Weather View 32 v60,2013-12-06 12:50:00,
2013-12-06 06:55:00,2.4,-9.7,29.48,North,353,8.0,16.0,56,0.00,,,-99.99,Weather View 32 v60,2013-12-06 12:55:00,
2013-12-06 07:00:00,2.2,-56.8,29.49,NNE,24,5.0,16.0,4,0.00,,,-99.99,Weather View 32 v60,2013-12-06 13:00:00,
2013-12-06 07:10:00,1.9,-61.4,29.49,NNW,335,7.0,16.0,3,0.00,,,-99.99,Weather View 32 v60,2013-12-06 13:10:00,
2013-12-06 07:20:00,1.9,-57.0,29.49,NNW,335,4.0,16.0,4,0.00,,,-99.99,Weather View 32 v60,2013-12-06 13:20:00,
2013-12-06 07:25:00,1.8,-10.3,29.48,NNW,341,8.0,16.0,56,0.00,,,-99.99,Weather View 32 v60,2013-12-06 13:25:00,
2013-12-06 07:30:00,1.6,-10.5,29.48,NNW,341,8.0,16.0,56,0.00,,,-99.99,Weather View 32 v60,2013-12-06 13:30:00,
2013-12-06 07:35:00,1.4,-44.3,29.47,NW,319,4.0,16.0,9,0.00,,,-99.99,Weather View 32 v60,2013-12-06 13:35:00,
2013-12-06 07:40:00,1.2,-10.8,29.47,North,10,13.0,16.0,56,0.00,,,-99.99,Weather View 32 v60,2013-12-06 13:40:00,
2013-12-06 07:45:00,1.1,-44.5,29.47,North,0,4.0,16.0,9,0.00,,,-99.99,Weather View 32 v60,2013-12-06 13:45:00,
2013-12-06 07:50:00,1.1,-54.1,29.47,North,353,5.0,16.0,5,0.00,,,-99.99,Weather View 32 v60,2013-12-06 13:50:00,
2013-12-06 08:00:00,1.0,-10.7,29.47,North,8,4.0,16.0,57,0.00,,,-99.99,Weather View 32 v60,2013-12-06 14:00:00,
2013-12-06 08:05:00,1.0,-11.0,29.47,North,353,12.0,16.0,56,0.00,,,-99.99,Weather View 32 v60,2013-12-06 14:05:00,
2013-12-06 08:10:00,1.0,-11.0,29.48,North,350,3.0,16.0,56,0.00,,,-99.99,Weather View 32 v60,2013-12-06 14:10:00,
2013-12-06 08:20:00,0.9,-11.1,29.49,North,351,8.0,16.0,56,0.00,,,-99.99,Weather View 32 v60,2013-12-06 14:20:00,
2013-12-06 08:30:00,1.4,-10.6,29.52,North,351,4.0,15.0,56,0.00,,,-99.99,Weather View 32 v60,2013-12-06 14:30:00,
2013-12-06 08:35:00,1.8,-10.3,29.52,North,9,6.0,15.0,56,0.00,,,-99.99,Weather View 32 v60,2013-12-06 14:35:00,
2013-12-06 08:45:00,1.7,-10.7,29.51,North,11,6.0,15.0,55,0.00,,,-99.99,Weather View 32 v60,2013-12-06 14:45:00,
2013-12-06 08:55:00,2.2,-10.6,29.51,North,358,3.0,15.0,54,0.00,,,-99.99,Weather View 32 v60,2013-12-06 14:55:00,
2013-12-06 09:00:00,2.3,-10.5,29.52,NNE,19,9.0,15.0,54,0.00,,,-99.99,Weather View 32 v60,2013-12-06 15:00:00,
2013-12-06 09:05:00,2.3,-56.7,29.52,North,356,2.0,15.0,4,0.00,,,-99.99,Weather View 32 v60,2013-12-06 15:05:00,
2013-12-06 09:15:00,2.3,-10.9,29.52,North,0,2.0,16.0,53,0.00,,,-99.99,Weather View 32 v60,2013-12-06 15:15:00,
2013-12-06 09:25:00,3.2,-9.7,29.52,North,358,6.0,16.0,54,0.00,,,-99.99,Weather View 32 v60,2013-12-06 15:25:00,
2013-12-06 09:35:00,3.2,-10.1,29.53,North,353,3.0,16.0,53,0.00,,,-99.99,Weather View 32 v60,2013-12-06 15:35:00,
2013-12-06 09:45:00,3.4,-10.3,29.52,North,6,8.0,16.0,52,0.00,,,-99.99,Weather View 32 v60,2013-12-06 15:45:00,
2013-12-06 09:50:00,3.3,-10.8,29.52,North,352,5.0,16.0,51,0.00,,,-99.99,Weather View 32 v60,2013-12-06 15:50:00,
2013-12-06 10:00:00,3.7,-10.8,29.52,North,3,10.0,17.0,50,0.00,,,-99.99,Weather View 32 v60,2013-12-06 16:00:00,
2013-12-06 10:10:00,3.9,-10.6,29.52,North,358,6.0,20.0,50,0.00,,,-99.99,Weather View 32 v60,2013-12-06 16:10:00,
2013-12-06 10:20:00,4.6,-9.5,29.53,North,355,2.0,20.0,51,0.00,,,-99.99,Weather View 32 v60,2013-12-06 16:20:00,
2013-12-06 10:25:00,4.9,-9.3,29.53,North,3,12.0,20.0,51,0.00,,,-99.99,Weather View 32 v60,2013-12-06 16:25:00,
2013-12-06 10:35:00,5.1,-9.5,29.54,North,9,5.0,20.0,50,0.00,,,-99.99,Weather View 32 v60,2013-12-06 16:35:00,
2013-12-06 10:45:00,5.9,-9.1,29.55,NNE,21,6.0,20.0,49,0.00,,,-99.99,Weather View 32 v60,2013-12-06 16:45:00,
2013-12-06 10:50:00,6.4,-8.7,29.55,North,358,9.0,20.0,49,0.00,,,-99.99,Weather View 32 v60,2013-12-06 16:50:00,
2013-12-06 11:00:00,7.1,-8.0,29.55,NNE,28,6.0,20.0,49,0.00,,,-99.99,Weather View 32 v60,2013-12-06 17:00:00,
2013-12-06 11:10:00,7.5,-8.5,29.55,North,7,3.0,13.0,47,0.00,,,-99.99,Weather View 32 v60,2013-12-06 17:10:00,
2013-12-06 11:20:00,8.3,-7.3,29.55,NNE,24,5.0,13.0,48,0.00,,,-99.99,Weather View 32 v60,2013-12-06 17:20:00,
2013-12-06 11:25:00,8.2,-7.9,29.55,NE,36,8.0,13.0,47,0.00,,,-99.99,Weather View 32 v60,2013-12-06 17:25:00,
2013-12-06 11:35:00,8.6,-7.5,29.54,North,357,2.0,12.0,47,0.00,,,-99.99,Weather View 32 v60,2013-12-06 17:35:00,
2013-12-06 11:45:00,8.5,-7.6,29.53,WNW,300,4.0,12.0,47,0.00,,,-99.99,Weather View 32 v60,2013-12-06 17:45:00,
2013-12-06 11:55:00,9.1,-7.0,29.53,North,11,5.0,12.0,47,0.00,,,-99.99,Weather View 32 v60,2013-12-06 17:55:00,
2013-12-06 12:00:00,9.2,-7.4,29.53,North,358,6.0,12.0,46,0.00,,,-99.99,Weather View 32 v60,2013-12-06 18:00:00,
2013-12-06 12:10:00,9.5,-7.1,29.52,North,355,7.0,12.0,46,0.00,,,-99.99,Weather View 32 v60,2013-12-06 18:10:00,
2013-12-06 12:20:00,9.8,-6.4,29.51,North,354,6.0,12.0,47,0.00,,,-99.99,Weather View 32 v60,2013-12-06 18:20:00,
2013-12-06 12:30:00,9.4,-7.2,29.51,North,0,5.0,13.0,46,0.00,,,-99.99,Weather View 32 v60,2013-12-06 18:30:00,
2013-12-06 12:40:00,10.1,-6.1,29.51,NW,324,6.0,13.0,47,0.00,,,-99.99,Weather View 32 v60,2013-12-06 18:40:00,
2013-12-06 12:45:00,10.4,-5.8,29.51,NNW,348,4.0,13.0,47,0.00,,,-99.99,Weather View 32 v60,2013-12-06 18:45:00,
2013-12-06 12:55:00,10.6,-6.1,29.51,NNW,342,14.0,14.0,46,0.00,,,-99.99,Weather View 32 v60,2013-12-06 18:55:00,
2013-12-06 13:04:00,10.5,-41.5,29.51,North,2,6.0,14.0,7,0.00,,,-99.99,Weather View 32 v60,2013-12-06 19:04:00,
2013-12-06 13:10:00,11.0,-5.3,29.51,NNE,31,2.0,15.0,47,0.00,,,-99.99,Weather View 32 v60,2013-12-06 19:10:00,
2013-12-06 13:20:00,11.6,-5.2,29.52,North,359,5.0,15.0,46,0.00,,,-99.99,Weather View 32 v60,2013-12-06 19:20:00,
2013-12-06 13:30:00,12.0,-4.8,29.52,NNW,334,6.0,15.0,46,0.00,,,-99.99,Weather View 32 v60,2013-12-06 19:30:00,
2013-12-06 13:35:00,12.2,-5.1,29.51,NNE,16,4.0,15.0,45,0.00,,,-99.99,Weather View 32 v60,2013-12-06 19:35:00,
2013-12-06 13:44:00,12.8,-4.1,29.52,North,0,9.0,15.0,46,0.00,,,-99.99,Weather View 32 v60,2013-12-06 19:44:00,
2013-12-06 13:50:00,12.6,-4.7,29.52,North,359,10.0,15.0,45,0.00,,,-99.99,Weather View 32 v60,2013-12-06 19:50:00,
2013-12-06 14:00:00,12.2,-4.6,29.52,North,3,5.0,15.0,46,0.00,,,-99.99,Weather View 32 v60,2013-12-06 20:00:00,
2013-12-06 14:05:00,12.5,-4.3,29.52,North,357,5.0,15.0,46,0.00,,,-99.99,Weather View 32 v60,2013-12-06 20:05:00,
2013-12-06 14:15:00,12.7,-4.2,29.52,NNW,345,1.0,14.0,46,0.00,,,-99.99,Weather View 32 v60,2013-12-06 20:15:00,
2013-12-06 14:25:00,12.5,-4.3,29.52,NNW,343,8.0,14.0,46,0.00,,,-99.99,Weather View 32 v60,2013-12-06 20:25:00,
2013-12-06 14:34:00,12.7,-4.2,29.52,North,356,3.0,14.0,46,0.00,,,-99.99,Weather View 32 v60,2013-12-06 20:34:00,
2013-12-06 14:40:00,13.0,-3.9,29.52,North,1,4.0,14.0,46,0.00,,,-99.99,Weather View 32 v60,2013-12-06 20:40:00,
2013-12-06 14:49:00,12.8,-3.6,29.52,NNW,347,8.0,14.0,47,0.00,,,-99.99,Weather View 32 v60,2013-12-06 20:49:00,
2013-12-06 14:55:00,12.6,-3.8,29.52,NNE,16,1.0,14.0,47,0.00,,,-99.99,Weather View 32 v60,2013-12-06 20:55:00,
2013-12-06 15:04:00,12.6,-4.3,29.52,NNW,327,7.0,14.0,46,0.00,,,-99.99,Weather View 32 v60,2013-12-06 21:04:00,
2013-12-06 15:09:00,12.3,-4.5,29.52,North,0,5.0,14.0,46,0.00,,,-99.99,Weather View 32 v60,2013-12-06 21:09:00,
2013-12-06 15:15:00,12.3,-4.1,29.52,North,349,4.0,14.0,47,0.00,,,-99.99,Weather View 32 v60,2013-12-06 21:15:00,
2013-12-06 15:24:00,12.6,-3.8,29.53,North,4,9.0,14.0,47,0.00,,,-99.99,Weather View 32 v60,2013-12-06 21:24:00,
2013-12-06 15:30:00,12.7,-3.7,29.53,North,3,3.0,14.0,47,0.00,,,-99.99,Weather View 32 v60,2013-12-06 21:30:00,
2013-12-06 15:40:00,12.6,-60.2,29.53,NNE,18,5.0,14.0,2,0.00,,,-99.99,Weather View 32 v60,2013-12-06 21:40:00,
2013-12-06 15:44:00,12.7,-39.8,29.53,NNE,12,5.0,14.0,7,0.00,,,-99.99,Weather View 32 v60,2013-12-06 21:44:00,
2013-12-06 15:50:00,12.5,-3.9,29.53,North,0,4.0,14.0,47,0.00,,,-99.99,Weather View 32 v60,2013-12-06 21:50:00,
2013-12-06 16:00:00,12.4,-3.6,29.54,North,0,3.0,12.0,48,0.00,,,-99.99,Weather View 32 v60,2013-12-06 22:00:00,
2013-12-06 16:05:00,12.5,-3.5,29.54,North,0,3.0,12.0,48,0.00,,,-99.99,Weather View 32 v60,2013-12-06 22:05:00,
2013-12-06 16:10:00,12.6,-3.4,29.54,North,357,1.0,12.0,48,0.00,,,-99.99,Weather View 32 v60,2013-12-06 22:10:00,
2013-12-06 16:19:00,11.7,-43.2,29.54,North,0,7.0,12.0,6,0.00,,,-99.99,Weather View 32 v60,2013-12-06 22:19:00,
2013-12-06 16:25:00,11.7,-3.8,29.54,North,0,4.0,12.0,49,0.00,,,-99.99,Weather View 32 v60,2013-12-06 22:25:00,
2013-12-06 16:35:00,11.6,-3.9,29.54,North,0,5.0,12.0,49,0.00,,,-99.99,Weather View 32 v60,2013-12-06 22:35:00,
2013-12-06 16:40:00,11.5,-4.0,29.54,NNW,348,6.0,12.0,49,0.00,,,-99.99,Weather View 32 v60,2013-12-06 22:40:00,
2013-12-06 16:49:00,11.3,-3.7,29.55,North,356,4.0,12.0,50,0.00,,,-99.99,Weather View 32 v60,2013-12-06 22:49:00,
2013-12-06 16:54:00,11.4,-3.6,29.54,North,2,6.0,12.0,50,0.00,,,-99.99,Weather View 32 v60,2013-12-06 22:54:00,
2013-12-06 17:00:00,11.2,-3.8,29.54,North,1,3.0,12.0,50,0.00,,,-99.99,Weather View 32 v60,2013-12-06 23:00:00,
2013-12-06 17:07:00,11.1,-3.5,29.55,North,5,7.0,12.0,51,0.00,,,-99.99,Weather View 32 v60,2013-12-06 23:07:00,
2013-12-06 17:15:00,11.0,-3.6,29.55,NNW,337,1.0,12.0,51,0.00,,,-99.99,Weather View 32 v60,2013-12-06 23:15:00,
2013-12-06 17:25:00,10.9,-3.7,29.55,NNW,327,4.0,10.0,51,0.00,,,-99.99,Weather View 32 v60,2013-12-06 23:25:00,
2013-12-06 17:30:00,10.8,-3.8,29.55,North,0,6.0,10.0,51,0.00,,,-99.99,Weather View 32 v60,2013-12-06 23:30:00,
2013-12-06 17:40:00,10.7,-3.9,29.55,North,0,3.0,10.0,51,0.00,,,-99.99,Weather View 32 v60,2013-12-06 23:40:00,
2013-12-06 17:45:00,10.6,-3.6,29.56,North,349,6.0,10.0,52,0.00,,,-99.99,Weather View 32 v60,2013-12-06 23:45:00,
2013-12-06 17:54:00,10.5,-3.6,29.56,North,0,3.0,10.0,52,0.00,,,-99.99,Weather View 32 v60,2013-12-06 23:54:00,
2013-12-06 18:00:00,10.4,-3.3,29.56,North,0,3.0,10.0,53,0.00,,,-99.99,Weather View 32 v60,2013-12-07 00:00:00,
2013-12-06 18:07:00,10.4,-3.3,29.56,NNW,344,7.0,10.0,53,0.00,,,-99.99,Weather View 32 v60,2013-12-07 00:07:00,
2013-12-06 18:14:00,10.3,-3.4,29.57,North,0,5.0,9.0,53,0.00,,,-99.99,Weather View 32 v60,2013-12-07 00:14:00,
2013-12-06 18:20:00,10.2,-3.5,29.57,North,1,6.0,9.0,53,0.00,,,-99.99,Weather View 32 v60,2013-12-07 00:20:00,
2013-12-06 18:29:00,9.9,-3.4,29.57,North,352,5.0,9.0,54,0.00,,,-99.99,Weather View 32 v60,2013-12-07 00:29:00,
2013-12-06 18:35:00,9.9,-3.4,29.57,NNE,19,5.0,9.0,54,0.00,,,-99.99,Weather View 32 v60,2013-12-07 00:35:00,
2013-12-06 18:45:00,9.7,-3.6,29.58,North,1,4.0,9.0,54,0.00,,,-99.99,Weather View 32 v60,2013-12-07 00:45:00,
2013-12-06 18:55:00,9.4,-3.5,29.59,North,0,2.0,9.0,55,0.00,,,-99.99,Weather View 32 v60,2013-12-07 00:55:00,
2013-12-06 19:00:00,9.3,-3.6,29.59,North,358,7.0,10.0,55,0.00,,,-99.99,Weather View 32 v60,2013-12-07 01:00:00,
2013-12-06 19:08:00,9.3,-3.6,29.59,North,0,3.0,10.0,55,0.00,,,-99.99,Weather View 32 v60,2013-12-07 01:08:00,
2013-12-06 19:15:00,9.3,-3.6,29.60,North,351,6.0,10.0,55,0.00,,,-99.99,Weather View 32 v60,2013-12-07 01:15:00,
2013-12-06 19:20:00,9.2,-3.7,29.60,North,2,5.0,11.0,55,0.00,,,-99.99,Weather View 32 v60,2013-12-07 01:20:00,
2013-12-06 19:29:00,8.8,-4.1,29.61,North,10,2.0,11.0,55,0.00,,,-99.99,Weather View 32 v60,2013-12-07 01:29:00,
2013-12-06 19:35:00,8.7,-4.2,29.61,North,0,5.0,11.0,55,0.00,,,-99.99,Weather View 32 v60,2013-12-07 01:35:00,
2013-12-06 19:44:00,8.5,-4.7,29.61,North,0,5.0,14.0,54,0.00,,,-99.99,Weather View 32 v60,2013-12-07 01:44:00,
2013-12-06 19:50:00,8.4,-37.0,29.61,North,1,5.0,14.0,10,0.00,,,-99.99,Weather View 32 v60,2013-12-07 01:50:00,
2013-12-06 19:55:00,8.3,-4.5,29.61,North,0,3.0,14.0,55,0.00,,,-99.99,Weather View 32 v60,2013-12-07 01:55:00,
2013-12-06 20:00:00,8.3,-4.5,29.61,North,0,2.0,14.0,55,0.00,,,-99.99,Weather View 32 v60,2013-12-07 02:00:00,
2013-12-06 20:08:00,8.0,-57.1,29.62,North,352,9.0,14.0,3,0.00,,,-99.99,Weather View 32 v60,2013-12-07 02:08:00,
2013-12-06 20:15:00,7.5,-53.0,29.62,NNW,348,8.0,14.0,4,0.00,,,-99.99,Weather View 32 v60,2013-12-07 02:15:00,
2013-12-06 20:20:00,7.3,-5.5,29.62,North,357,2.0,14.0,55,0.00,,,-99.99,Weather View 32 v60,2013-12-07 02:20:00,
2013-12-06 20:25:00,7.2,-5.6,29.62,North,353,7.0,14.0,55,0.00,,,-99.99,Weather View 32 v60,2013-12-07 02:25:00,
2013-12-06 20:35:00,6.9,-49.8,29.63,North,358,7.0,14.0,5,0.00,,,-99.99,Weather View 32 v60,2013-12-07 02:35:00,
2013-12-06 20:40:00,6.8,-5.6,29.63,North,357,8.0,14.0,56,0.00,,,-99.99,Weather View 32 v60,2013-12-07 02:40:00,
2013-12-06 20:50:00,6.4,-47.2,29.63,NNW,344,6.0,13.0,6,0.00,,,-99.99,Weather View 32 v60,2013-12-07 02:50:00,
2013-12-06 20:54:00,6.2,-50.3,29.64,North,351,10.0,13.0,5,0.00,,,-99.99,Weather View 32 v60,2013-12-07 02:54:00,
2013-12-06 21:00:00,5.9,-6.8,29.64,North,350,9.0,14.0,55,0.00,,,-99.99,Weather View 32 v60,2013-12-07 03:00:00,
2013-12-06 21:09:00,5.8,-6.9,29.64,NNW,341,6.0,15.0,55,0.00,,,-99.99,Weather View 32 v60,2013-12-07 03:09:00,
2013-12-06 21:15:00,5.4,-7.3,29.64,NNE,18,6.0,15.0,55,0.00,,,-99.99,Weather View 32 v60,2013-12-07 03:15:00,
2013-12-06 21:20:00,5.4,-6.9,29.64,North,354,13.0,18.0,56,0.00,,,-99.99,Weather View 32 v60,2013-12-07 03:20:00,
2013-12-06 21:30:00,5.0,-7.3,29.64,NNW,347,6.0,18.0,56,0.00,,,-99.99,Weather View 32 v60,2013-12-07 03:30:00,
2013-12-06 21:35:00,4.9,-7.4,29.65,North,359,7.0,18.0,56,0.00,,,-99.99,Weather View 32 v60,2013-12-07 03:35:00,
2013-12-06 21:45:00,4.7,-7.5,29.64,NNW,339,8.0,18.0,56,0.00,,,-99.99,Weather View 32 v60,2013-12-07 03:45:00,
2013-12-06 21:49:00,4.6,-7.6,29.65,North,356,6.0,18.0,56,0.00,,,-99.99,Weather View 32 v60,2013-12-07 03:49:00,
2013-12-06 21:55:00,4.4,-7.8,29.65,North,359,1.0,18.0,56,0.00,,,-99.99,Weather View 32 v60,2013-12-07 03:55:00,
2013-12-06 22:04:00,4.1,-7.7,29.65,North,0,4.0,18.0,57,0.00,,,-99.99,Weather View 32 v60,2013-12-07 04:04:00,
2013-12-06 22:10:00,4.0,-7.8,29.65,North,0,5.0,18.0,57,0.00,,,-99.99,Weather View 32 v60,2013-12-07 04:10:00,
2013-12-06 22:15:00,3.8,-8.0,29.65,North,358,7.0,18.0,57,0.00,,,-99.99,Weather View 32 v60,2013-12-07 04:15:00,
2013-12-06 22:25:00,3.7,-8.1,29.65,North,358,5.0,17.0,57,0.00,,,-99.99,Weather View 32 v60,2013-12-07 04:25:00,
2013-12-06 22:30:00,3.4,-8.4,29.66,North,358,9.0,17.0,57,0.00,,,-99.99,Weather View 32 v60,2013-12-07 04:30:00,
2013-12-06 22:40:00,3.0,-8.4,29.66,North,356,7.0,13.0,58,0.00,,,-99.99,Weather View 32 v60,2013-12-07 04:40:00,
2013-12-06 22:45:00,2.8,-60.8,29.66,North,351,5.0,14.0,3,0.00,,,-99.99,Weather View 32 v60,2013-12-07 04:45:00,
2013-12-06 22:54:00,2.7,-8.7,29.67,North,353,8.0,14.0,58,0.00,,,-99.99,Weather View 32 v60,2013-12-07 04:54:00,
2013-12-06 23:00:00,2.6,-8.8,29.67,NNW,348,2.0,14.0,58,0.00,,,-99.99,Weather View 32 v60,2013-12-07 05:00:00,
2013-12-06 23:05:00,2.5,-8.9,29.67,North,359,4.0,14.0,58,0.00,,,-99.99,Weather View 32 v60,2013-12-07 05:05:00,
2013-12-06 23:10:00,2.3,-8.7,29.67,North,2,7.0,14.0,59,0.00,,,-99.99,Weather View 32 v60,2013-12-07 05:10:00,
2013-12-06 23:15:00,2.3,-8.7,29.68,North,358,9.0,14.0,59,0.00,,,-99.99,Weather View 32 v60,2013-12-07 05:15:00,
2013-12-06 23:20:00,2.2,-8.8,29.68,North,359,4.0,14.0,59,0.00,,,-99.99,Weather View 32 v60,2013-12-07 05:20:00,
2013-12-06 23:25:00,2.1,-8.9,29.68,North,357,6.0,14.0,59,0.00,,,-99.99,Weather View 32 v60,2013-12-07 05:25:00,
2013-12-06 23:30:00,1.9,-9.1,29.68,North,359,2.0,14.0,59,0.00,,,-99.99,Weather View 32 v60,2013-12-07 05:30:00,
2013-12-06 23:40:00,1.7,-9.7,29.68,North,2,4.0,14.0,58,0.00,,,-99.99,Weather View 32 v60,2013-12-07 05:40:00,
2013-12-06 23:44:00,1.7,-9.7,29.69,North,11,5.0,13.0,58,0.00,,,-99.99,Weather View 32 v60,2013-12-07 05:44:00,
2013-12-06 23:50:00,1.5,-10.2,29.68,North,359,6.0,13.0,57,0.00,,,-99.99,Weather View 32 v60,2013-12-07 05:50:00,
2013-12-06 23:59:00,1.1,-10.6,29.68,North,353,10.0,13.0,57,0.00,,,-99.99,Weather View 32 v60,2013-12-07 05:59:00,